Location: Unspecified
(0.0000°N, 0.0000°E)
Time: 03:48:45
(UTC+00:00)

A-11 Canister half - Pass Details

Date: 21 April 2026
Orbit: 1523 x 1685 km, 47.3° (Epoch: 13 May)

Event Time Altitude Azimuth Distance (km) Brightness Sun altitude
Rises 17:55:34 0° 186° (S) 4,698 11.5 0.8°
Reaches altitude 10° 18:00:56 10° 161° (SSE) 3,741 10.8 -0.6°
Maximum altitude 18:05:11 14° 134° (SE) 3,482 10.4 -1.6°
Drops below altitude 10° 18:09:27 10° 107° (ESE) 3,793 10.4 -2.6°
Enters shadow 18:13:42 - 87° (E) 4,553 10.8 -3.7°
Sets 18:14:53 0° 83° (E) 4,814 - -4.0°
